Tracking 35334 objects as of 13-Sep-2026
HD Live streaming from Space Station
objects crossing your sky now

SL-4 R/B


SL-4 R/B is no longer on orbit


NORAD ID: 17300
Int'l Code: 1987-005B
Launch date: January 16, 1987
Source: Commonwealth of Independent States (former USSR) (CIS)
Launch site: TYURATAM MISSILE AND SPACE COMPLEX (TTMTR)
Decay date: 1987-01-20

Note: This is a ROCKET BODY
Your satellite tracking list
Your tracking list is empty




NASA's NSSDC Master Catalog

Two Line Element Set (TLE):
1 17300U 87005  B 87020.41926350  .21216749 +57603-4 +13721-3 0  9992
2 17300 051.6133 193.4379 0006920 106.1762 254.8976 16.53314511000683
Source of the keplerian elements: AFSPC